BAW3012 EGCC-EGKK

Flight info

Callsign BAW3012
Flight time 0h 42m
Altitude 19000
Route LISTO L612 HON N859 KIDLI
Aircraft A321/M-SDE3FGHIRWY/LB1

Departure

Time 2026-05-07 20:44
Airport Manchester Airport (EGCC)

Arrival

Time 2026-05-07 21:27
Airport London Gatwick Airport (EGKK)
Time Latitude Longitude Altitude Speed Heading
2026-05-07 20:23 53.35979 -2.27516 255 ft 0 kts 96°
2026-05-07 20:35 53.35980 -2.27534 228 ft 4 kts 96°
2026-05-07 20:36 53.35983 -2.27576 265 ft 2 kts 95°
2026-05-07 20:36 53.35989 -2.27610 255 ft 4 kts 146°
2026-05-07 20:36 53.36009 -2.27622 255 ft 4 kts 178°
2026-05-07 20:36 53.36033 -2.27620 255 ft 0 kts 186°
2026-05-07 20:37 53.36019 -2.27623 255 ft 4 kts 186°
2026-05-07 20:37 53.36004 -2.27626 255 ft 0 kts 185°
2026-05-07 20:40 53.36003 -2.27626 255 ft 1 kts 185°
2026-05-07 20:40 53.35993 -2.27627 255 ft 2 kts 185°
2026-05-07 20:40 53.35970 -2.27630 255 ft 5 kts 184°
2026-05-07 20:40 53.35885 -2.27633 255 ft 18 kts 185°
2026-05-07 20:41 53.35753 -2.27649 250 ft 21 kts 172°
2026-05-07 20:41 53.35629 -2.27532 246 ft 19 kts 130°
2026-05-07 20:41 53.35642 -2.27416 248 ft 7 kts 55°
2026-05-07 20:41 53.35663 -2.27367 253 ft 5 kts 52°
2026-05-07 20:42 53.35725 -2.27237 255 ft 20 kts 51°
2026-05-07 20:42 53.35815 -2.27048 255 ft 21 kts 56°
2026-05-07 20:42 53.35898 -2.26843 256 ft 22 kts 55°
2026-05-07 20:42 53.35988 -2.26634 256 ft 23 kts 51°
2026-05-07 20:43 53.36090 -2.26424 256 ft 24 kts 50°
2026-05-07 20:43 53.36142 -2.26286 255 ft 7 kts 85°
2026-05-07 20:43 53.36108 -2.26208 255 ft 14 kts 137°
2026-05-07 20:43 53.36028 -2.26160 259 ft 12 kts 213°
2026-05-07 20:44 53.35921 -2.26363 265 ft 50 kts 230°
2026-05-07 20:44 53.35531 -2.27159 251 ft 125 kts 231°
2026-05-07 20:44 53.34900 -2.28494 587 ft 148 kts 232°
2026-05-07 20:44 53.34281 -2.29832 1397 ft 145 kts 229°
2026-05-07 20:45 53.33633 -2.31182 2034 ft 154 kts 227°
2026-05-07 20:45 53.32677 -2.32180 2288 ft 176 kts 192°
2026-05-07 20:45 53.31406 -2.31955 2638 ft 196 kts 162°
2026-05-07 20:45 53.30106 -2.30871 2863 ft 222 kts 154°
2026-05-07 20:46 53.28680 -2.29540 3261 ft 244 kts 152°
2026-05-07 20:46 53.27182 -2.28092 3971 ft 252 kts 152°
2026-05-07 20:46 53.25660 -2.26596 4770 ft 256 kts 152°
2026-05-07 20:46 53.24108 -2.25094 5561 ft 259 kts 156°
2026-05-07 20:47 53.22395 -2.24164 6315 ft 262 kts 168°
2026-05-07 20:47 53.20624 -2.23338 7067 ft 266 kts 166°
2026-05-07 20:47 53.18847 -2.22408 7850 ft 269 kts 165°
2026-05-07 20:47 53.17056 -2.21435 8632 ft 272 kts 164°
2026-05-07 20:48 53.15247 -2.20452 9421 ft 275 kts 165°
2026-05-07 20:48 53.13434 -2.19361 10152 ft 280 kts 161°
2026-05-07 20:48 53.11560 -2.18090 10404 ft 302 kts 160°
2026-05-07 20:48 53.09549 -2.16694 10546 ft 325 kts 159°
2026-05-07 20:49 53.07397 -2.15185 10689 ft 345 kts 159°
2026-05-07 20:49 53.05153 -2.13608 11128 ft 354 kts 159°
2026-05-07 20:49 53.02866 -2.12000 11736 ft 359 kts 159°
2026-05-07 20:49 53.00556 -2.10385 12357 ft 362 kts 159°
2026-05-07 20:50 52.98221 -2.08765 12966 ft 366 kts 159°
2026-05-07 20:50 52.95857 -2.07136 13582 ft 369 kts 159°
2026-05-07 20:50 52.93473 -2.05498 14152 ft 372 kts 159°
2026-05-07 20:50 52.91067 -2.03854 14699 ft 375 kts 159°
2026-05-07 20:51 52.88642 -2.02201 15259 ft 378 kts 159°
2026-05-07 20:51 52.86205 -2.00534 15831 ft 380 kts 159°
2026-05-07 20:51 52.83748 -1.98848 16392 ft 383 kts 159°
2026-05-07 20:51 52.81276 -1.97152 16881 ft 386 kts 159°
2026-05-07 20:52 52.78786 -1.95448 17007 ft 387 kts 159°
2026-05-07 20:52 52.76300 -1.93755 17043 ft 387 kts 159°
2026-05-07 20:52 52.73811 -1.92066 17033 ft 387 kts 159°
2026-05-07 20:52 52.71322 -1.90377 17037 ft 387 kts 159°
2026-05-07 20:53 52.68829 -1.88687 17036 ft 388 kts 159°
2026-05-07 20:53 52.66333 -1.86997 17048 ft 387 kts 159°
2026-05-07 20:53 52.63827 -1.85304 17402 ft 391 kts 159°
2026-05-07 20:53 52.61301 -1.83598 17957 ft 393 kts 159°
2026-05-07 20:54 52.58762 -1.81881 18458 ft 396 kts 159°
2026-05-07 20:54 52.56201 -1.80146 18879 ft 399 kts 159°
2026-05-07 20:54 52.53630 -1.78410 19018 ft 400 kts 160°
2026-05-07 20:54 52.51009 -1.76649 19051 ft 414 kts 160°
2026-05-07 20:55 52.48307 -1.74836 19058 ft 423 kts 159°
2026-05-07 20:55 52.45576 -1.73001 19056 ft 425 kts 159°
2026-05-07 20:55 52.42832 -1.71163 19059 ft 426 kts 160°
2026-05-07 20:55 52.41016 -1.69951 19056 ft 426 kts 160°
2026-05-07 20:56 52.38269 -1.68118 19056 ft 426 kts 160°
2026-05-07 20:56 52.35522 -1.66297 19056 ft 426 kts 160°
2026-05-07 20:56 52.32738 -1.64619 19052 ft 426 kts 162°
2026-05-07 20:56 52.29928 -1.63104 19050 ft 425 kts 164°
2026-05-07 20:57 52.27100 -1.61688 19060 ft 425 kts 165°
2026-05-07 20:57 52.24266 -1.60307 19064 ft 425 kts 165°
2026-05-07 20:57 52.21435 -1.58918 19066 ft 425 kts 165°
2026-05-07 20:57 52.18603 -1.57500 19070 ft 425 kts 164°
2026-05-07 20:58 52.15779 -1.56058 19069 ft 425 kts 164°
2026-05-07 20:58 52.12961 -1.54597 19066 ft 425 kts 164°
2026-05-07 20:58 52.10144 -1.53126 19065 ft 425 kts 164°
2026-05-07 20:58 52.07330 -1.51650 19063 ft 425 kts 164°
2026-05-07 20:59 52.04511 -1.50175 19058 ft 425 kts 164°
2026-05-07 20:59 52.01691 -1.48706 19037 ft 425 kts 164°
2026-05-07 20:59 51.98877 -1.47251 19039 ft 425 kts 164°
2026-05-07 20:59 51.96054 -1.45799 19029 ft 425 kts 164°
2026-05-07 21:00 51.93257 -1.44367 18722 ft 418 kts 164°
2026-05-07 21:00 51.90507 -1.42964 18025 ft 411 kts 164°
2026-05-07 21:00 51.87808 -1.41587 17371 ft 402 kts 164°
2026-05-07 21:00 51.85167 -1.40241 16785 ft 395 kts 164°
2026-05-07 21:01 51.82571 -1.38918 16214 ft 387 kts 164°
2026-05-07 21:01 51.80026 -1.37615 15655 ft 380 kts 164°
2026-05-07 21:01 51.77559 -1.36181 15179 ft 374 kts 157°
2026-05-07 21:01 51.75230 -1.34125 15027 ft 391 kts 149°
2026-05-07 21:02 51.72932 -1.31713 15057 ft 397 kts 149°
2026-05-07 21:02 51.70605 -1.29289 15057 ft 398 kts 149°
2026-05-07 21:02 51.68274 -1.26867 15081 ft 399 kts 149°
2026-05-07 21:02 51.65943 -1.24449 15083 ft 399 kts 149°
2026-05-07 21:03 51.63612 -1.22037 15085 ft 399 kts 149°
2026-05-07 21:03 51.61305 -1.19655 15084 ft 399 kts 149°
2026-05-07 21:03 51.58969 -1.17237 15084 ft 399 kts 149°
2026-05-07 21:03 51.56637 -1.14818 15070 ft 399 kts 149°
2026-05-07 21:04 51.54304 -1.12402 14233 ft 402 kts 149°
2026-05-07 21:04 51.51931 -1.09950 13169 ft 406 kts 149°
2026-05-07 21:04 51.49598 -1.07543 12809 ft 391 kts 149°
2026-05-07 21:04 51.47326 -1.05199 12542 ft 387 kts 149°
2026-05-07 21:05 51.45066 -1.02870 12280 ft 386 kts 149°
2026-05-07 21:05 51.42809 -1.00550 12010 ft 385 kts 149°
2026-05-07 21:05 51.40558 -0.98240 11766 ft 384 kts 149°
2026-05-07 21:05 51.38343 -0.95969 11501 ft 367 kts 149°
2026-05-07 21:06 51.36269 -0.93841 11245 ft 343 kts 149°
2026-05-07 21:06 51.34309 -0.91831 10996 ft 327 kts 149°
2026-05-07 21:06 51.32422 -0.89901 10752 ft 318 kts 149°
2026-05-07 21:06 51.30563 -0.88004 10505 ft 316 kts 149°
2026-05-07 21:07 51.28711 -0.86119 10261 ft 316 kts 150°
2026-05-07 21:07 51.26861 -0.84235 10025 ft 315 kts 150°
2026-05-07 21:07 51.25016 -0.82359 9887 ft 315 kts 150°
2026-05-07 21:07 51.23166 -0.80478 9758 ft 314 kts 149°
2026-05-07 21:08 51.21326 -0.78608 9622 ft 314 kts 149°
2026-05-07 21:08 51.19486 -0.76743 9487 ft 313 kts 149°
2026-05-07 21:08 51.17654 -0.74885 9348 ft 312 kts 149°
2026-05-07 21:08 51.15823 -0.73030 9221 ft 311 kts 149°
2026-05-07 21:09 51.14001 -0.71187 9075 ft 310 kts 149°
2026-05-07 21:09 51.12178 -0.69346 8950 ft 310 kts 149°
2026-05-07 21:09 51.10370 -0.67523 8663 ft 304 kts 149°
2026-05-07 21:09 51.08628 -0.65763 8471 ft 289 kts 149°
2026-05-07 21:10 51.06955 -0.64055 8181 ft 283 kts 146°
2026-05-07 21:10 51.05553 -0.62041 8061 ft 282 kts 131°
2026-05-07 21:10 51.04446 -0.59454 8076 ft 284 kts 117°
2026-05-07 21:10 51.03574 -0.56672 8080 ft 285 kts 117°
2026-05-07 21:11 51.02691 -0.53855 8080 ft 285 kts 117°
2026-05-07 21:11 51.01809 -0.51040 8079 ft 285 kts 117°
2026-05-07 21:11 51.00037 -0.45404 8079 ft 285 kts 117°
2026-05-07 21:12 50.99151 -0.42588 8079 ft 285 kts 117°
2026-05-07 21:12 50.98266 -0.39773 8079 ft 285 kts 117°
2026-05-07 21:12 50.97380 -0.36963 8082 ft 285 kts 117°
2026-05-07 21:12 50.96492 -0.34152 8081 ft 285 kts 117°
2026-05-07 21:13 50.95604 -0.31343 8081 ft 285 kts 117°
2026-05-07 21:13 50.94714 -0.28537 8081 ft 285 kts 117°
2026-05-07 21:13 50.93823 -0.25731 8081 ft 285 kts 117°
2026-05-07 21:13 50.92933 -0.22928 8081 ft 285 kts 117°
2026-05-07 21:14 50.92041 -0.20120 8084 ft 285 kts 117°
2026-05-07 21:14 50.91152 -0.17316 8084 ft 284 kts 117°
2026-05-07 21:14 50.90285 -0.14585 8080 ft 269 kts 117°
2026-05-07 21:14 50.89467 -0.12014 8081 ft 255 kts 117°
2026-05-07 21:15 50.88676 -0.09522 8082 ft 252 kts 116°
2026-05-07 21:15 50.88218 -0.06852 8087 ft 258 kts 94°
2026-05-07 21:15 50.88492 -0.03918 8090 ft 279 kts 66°
2026-05-07 21:15 50.89616 -0.01424 8087 ft 282 kts 38°
2026-05-07 21:16 50.91333 -0.00010 8079 ft 276 kts 11°
2026-05-07 21:16 50.93131 -0.00018 8103 ft 249 kts 341°
2026-05-07 21:16 50.94585 -0.01376 8078 ft 243 kts 311°
2026-05-07 21:16 50.95392 -0.03680 8081 ft 240 kts 286°
2026-05-07 21:17 50.95807 -0.06248 7993 ft 239 kts 282°
2026-05-07 21:17 50.96159 -0.08815 7653 ft 238 kts 281°
2026-05-07 21:17 50.96495 -0.11352 7305 ft 238 kts 281°
2026-05-07 21:17 50.96833 -0.13959 6946 ft 238 kts 281°
2026-05-07 21:18 50.97160 -0.16527 6608 ft 237 kts 281°
2026-05-07 21:18 50.97480 -0.19101 6235 ft 238 kts 281°
2026-05-07 21:18 50.97802 -0.21680 5842 ft 239 kts 281°
2026-05-07 21:18 50.98128 -0.24268 5488 ft 239 kts 281°
2026-05-07 21:19 50.98457 -0.26848 5125 ft 239 kts 281°
2026-05-07 21:19 50.98791 -0.29429 4756 ft 239 kts 281°
2026-05-07 21:19 50.99128 -0.32015 4398 ft 239 kts 281°
2026-05-07 21:19 50.99464 -0.34589 4048 ft 238 kts 281°
2026-05-07 21:20 50.99799 -0.37157 3703 ft 237 kts 281°
2026-05-07 21:20 51.00130 -0.39718 3351 ft 236 kts 281°
2026-05-07 21:20 51.00460 -0.42269 3050 ft 234 kts 281°
2026-05-07 21:20 51.01077 -0.44616 2996 ft 228 kts 310°
2026-05-07 21:21 51.02278 -0.46023 3015 ft 207 kts 336°
2026-05-07 21:21 51.03570 -0.46886 3007 ft 198 kts 340°
2026-05-07 21:21 51.04846 -0.47665 3005 ft 195 kts 341°
2026-05-07 21:21 51.06114 -0.48423 3007 ft 194 kts 344°
2026-05-07 21:22 51.07421 -0.48492 3000 ft 189 kts 22°
2026-05-07 21:22 51.08547 -0.47475 3016 ft 186 kts 38°
2026-05-07 21:22 51.09566 -0.46244 3013 ft 186 kts 41°
2026-05-07 21:22 51.10590 -0.44947 3009 ft 185 kts 44°
2026-05-07 21:23 51.11340 -0.43387 3000 ft 175 kts 66°
2026-05-07 21:23 51.11677 -0.41575 2861 ft 166 kts 79°
2026-05-07 21:23 51.11923 -0.39810 2660 ft 161 kts 79°
2026-05-07 21:23 51.12165 -0.38077 2463 ft 159 kts 79°
2026-05-07 21:24 51.12401 -0.36384 2249 ft 158 kts 79°
2026-05-07 21:24 51.12643 -0.34652 2032 ft 158 kts 79°
2026-05-07 21:24 51.12878 -0.32968 1818 ft 158 kts 80°
2026-05-07 21:24 51.13116 -0.31264 1623 ft 158 kts 79°
2026-05-07 21:25 51.13353 -0.29566 1386 ft 153 kts 80°
2026-05-07 21:25 51.13575 -0.27976 1170 ft 143 kts 80°
2026-05-07 21:25 51.13787 -0.26449 972 ft 140 kts 78°
2026-05-07 21:25 51.13995 -0.24945 783 ft 139 kts 79°
2026-05-07 21:26 51.14207 -0.23446 585 ft 139 kts 78°
2026-05-07 21:26 51.14420 -0.21948 407 ft 139 kts 79°
2026-05-07 21:26 51.14618 -0.20465 224 ft 132 kts 79°
2026-05-07 21:26 51.14781 -0.19272 205 ft 72 kts 77°
2026-05-07 21:27 51.14877 -0.18635 207 ft 45 kts 68°
2026-05-07 21:27 51.14995 -0.18397 206 ft 16 kts 44°
2026-05-07 21:27 51.15028 -0.18344 206 ft 2 kts 49°
2026-05-07 21:28 51.15029 -0.18341 205 ft 0 kts 49°
2026-05-07 21:28 51.15049 -0.18301 209 ft 12 kts 52°
2026-05-07 21:29 51.15134 -0.18191 207 ft 15 kts 356°
2026-05-07 21:29 51.15234 -0.18222 204 ft 15 kts 346°
2026-05-07 21:29 51.15343 -0.18262 210 ft 17 kts 347°
2026-05-07 21:29 51.15440 -0.18212 206 ft 16 kts 71°
2026-05-07 21:30 51.15468 -0.18026 208 ft 18 kts 78°
2026-05-07 21:30 51.15495 -0.17820 208 ft 20 kts 78°
2026-05-07 21:30 51.15525 -0.17600 207 ft 21 kts 77°
2026-05-07 21:30 51.15582 -0.17414 206 ft 18 kts 65°
2026-05-07 21:31 51.15619 -0.17216 213 ft 20 kts 76°
2026-05-07 21:31 51.15644 -0.17034 204 ft 10 kts 78°
2026-05-07 21:31 51.15656 -0.16955 209 ft 6 kts 62°
2026-05-07 21:31 51.15697 -0.16906 214 ft 8 kts 32°
2026-05-07 21:32 51.15726 -0.16878 215 ft 1 kts 31°
2026-05-07 21:32 51.15737 -0.16867 212 ft 3 kts 31°
2026-05-07 21:32 51.15746 -0.16859 208 ft 0 kts 31°